Weather History for Fort Rucker / Ozark, AL

Change the Weather History Date:

Sunday, January 20, 2013

  Actual Average (KDHN) Record (KDHN)
Temperature  
Mean Temperature 52 °F 49 °F  
Max Temperature 66 °F 60 °F 77 °F (1951)
Min Temperature 39 °F 38 °F 14 °F (1940)
Degree Days  
Heating Degree Days 12 16  
Month to date heating degree days 331  
Since 1 July heating degree days 1044  
Growing Degree Days 2 (Base 50)    
Moisture  
Dew Point 40 °F    
Average Humidity 70    
Maximum Humidity 97    
Minimum Humidity 33    
Precipitation  
Precipitation 0.00 in 0.13 in 1.60 in (1963)
Month to date precipitation 2.65  
Year to date precipitation 2.65  
Sea Level Pressure  
Sea Level Pressure 30.18 in    
Wind  
Wind Speed 1 mph (NNW)    
Max Wind Speed 9 mph    
Max Gust Speed -    
Visibility 9 miles    
Events      
T = Trace of Precipitation, MM = Missing Value Source: NWS Daily Summary

Daily Weather History Graph

Daily Weather History Graph

Search for Another Location

Airport:

Trip Planner

Search our weather history database for the weather conditions in past years. The results will help you decide how hot, cold, wet, or windy it might be!

Date:

Astronomy

Jan. 20, 2013 Rise Set
Actual Time 6:41 AM CST 5:07 PM CST
Civil Twilight 6:15 AM CST 5:33 PM CST
Nautical Twilight 5:45 AM CST 6:03 PM CST
Astronomical Twilight 5:16 AM CST 6:32 PM CST
Moon 12:07 PM CST (1/20) 1:14 AM CST (1/20)
Length of Visible Light 11h 18m
Length of Day
10h 26m
Waxing Gibbous, 66% of the Moon is Illuminated
Jan 20
Waxing Gibbous
Jan 26
Full
Feb 3
Last Quarter
Feb 10
New
Feb 17
First Quarter

Hourly Weather History & Observations

Time (CST) Temp. Dew Point Humidity Pressure Visibility Wind Dir Wind Speed Gust Speed Precip Events Conditions
12:53 AM 50.0 °F 46.0 °F 86% 30.23 in 10.0 mi Calm Calm - N/A   Overcast
1:53 AM 48.0 °F 45.0 °F 89% 30.24 in 8.0 mi Calm Calm - N/A   Overcast
2:53 AM 46.0 °F 44.1 °F 93% 30.23 in 9.0 mi Calm Calm - N/A   Partly Cloudy
3:53 AM 44.1 °F 42.1 °F 93% 30.22 in 10.0 mi Calm Calm - N/A   Clear
4:53 AM 41.0 °F 39.9 °F 96% 30.23 in 4.0 mi Calm Calm - N/A   Clear
5:53 AM 41.0 °F 39.0 °F 93% 30.23 in 4.0 mi Calm Calm - N/A   Clear
6:53 AM 41.0 °F 39.0 °F 93% 30.25 in 6.0 mi Calm Calm - N/A   Clear
7:53 AM 43.0 °F 42.1 °F 97% 30.25 in 5.0 mi Calm Calm - N/A   Clear
8:53 AM 55.0 °F 43.0 °F 64% 30.25 in 10.0 mi North 4.6 mph - N/A   Clear
9:53 AM 60.1 °F 42.1 °F 51% 30.25 in 10.0 mi NNW 5.8 mph - N/A   Clear
10:53 AM 63.0 °F 39.9 °F 43% 30.22 in 10.0 mi North 9.2 mph - N/A   Clear
11:53 AM 64.0 °F 39.0 °F 40% 30.18 in 10.0 mi NW 5.8 mph - N/A   Clear
12:27 PM 64.4 °F 37.4 °F 37% 30.16 in 10.0 mi Calm Calm - N/A   Scattered Clouds
12:53 PM 66.0 °F 39.0 °F 37% 30.14 in 10.0 mi Variable 4.6 mph - N/A   Clear
1:53 PM 66.0 °F 37.0 °F 34% 30.13 in 10.0 mi Calm Calm - N/A   Clear
2:53 PM 66.9 °F 37.0 °F 33% 30.12 in 10.0 mi Calm Calm - N/A   Clear
3:53 PM 66.0 °F 36.0 °F 33% 30.12 in 10.0 mi NW 4.6 mph - N/A   Clear
4:53 PM 63.0 °F 39.0 °F 41% 30.12 in 10.0 mi Calm Calm - N/A   Clear
5:53 PM 52.0 °F 41.0 °F 66% 30.13 in 10.0 mi Calm Calm - N/A   Clear
6:53 PM 48.9 °F 42.1 °F 77% 30.13 in 10.0 mi Calm Calm - N/A   Clear
7:53 PM 46.9 °F 42.1 °F 83% 30.14 in 10.0 mi Calm Calm - N/A   Clear
8:53 PM 44.1 °F 39.9 °F 85% 30.15 in 10.0 mi Calm Calm - N/A   Clear
9:53 PM 42.1 °F 39.0 °F 89% 30.15 in 10.0 mi Calm Calm - N/A   Clear
10:53 PM 39.9 °F 37.9 °F 93% 30.14 in 10.0 mi Calm Calm - N/A   Clear
11:53 PM 39.0 °F 37.0 °F 93% 30.13 in 10.0 mi Calm Calm - N/A   Clear